Location: Myra
(43.4160°N, 88.0960°W)
Time: 04:44:24
(UTC-05:00)

Daily predictions for brighter satellites

Satellite Brightness Start Highest point End
(mag) Time Altitude Azimuth Time Altitude Azimuth Time Altitude Azimuth
COSMOS 2428 4.5 00:19:05 25° NE 00:19:05 25° NE 00:21:26 10° NE
ATLAS CENTAUR R/B 4.2 00:19:54 72° SSE 00:20:47 76° SE 00:45:41 10° NE
Lacrosse 4 Rocket 4.4 00:35:57 14° NNE 00:35:57 14° NNE 00:36:33 10° NNE
Cosmos 2278 Rocket 3.6 00:34:38 10° N 00:38:34 32° NNE 00:38:34 32° NNE
SL-16 R/B 4.3 00:53:37 18° WNW 00:54:41 19° NW 00:58:37 10° N
COSMOS 2455 4.3 01:11:16 31° NE 01:11:16 31° NE 01:14:26 10° NE
Cosmos 1844 Rocket 4.3 01:06:42 10° NNW 01:09:14 27° NW 01:09:14 27° NW
Cosmos 2360 Rocket 3.8 01:14:22 28° NW 01:14:22 28° NW 01:18:28 10° N
CZ-2C R/B 3.9 01:12:19 10° N 01:15:42 39° N 01:15:42 39° N
Cosmos 2219 Rocket 3.3 01:37:37 39° N 01:37:37 39° N 01:41:10 10° NNE
ATLAS 3B R/B 3.1 01:40:31 65° ENE 01:40:31 65° ENE 01:46:54 10° NE
Cosmos 2333 Rocket 3.2 01:45:46 44° NNE 01:45:46 44° NNE 01:49:40 10° NNE
SL-16 R/B 3.6 01:46:25 31° ENE 01:46:25 31° ENE 01:49:47 10° NE
Cosmos 2237 Rocket 3.2 01:52:23 44° NNE 01:52:23 44° NNE 01:56:16 10° NNE
COSMOS 2428 4.3 02:01:06 26° NW 02:01:06 26° NW 02:05:16 10° N
Lacrosse 4 Rocket 4.3 02:12:17 13° NNW 02:12:17 13° NNW 02:13:46 10° N
Cosmos 2266 Rocket 4.4 02:07:53 10° N 02:12:55 57° NNW 02:12:55 57° NNW
Cosmos 2278 Rocket 4.2 02:18:48 10° NW 02:20:22 18° NW 02:20:22 18° NW
USA 238 DEB 3.7 02:28:04 73° ESE 02:28:04 73° ESE 02:34:54 10° NE
USA 238 3.7 02:28:10 73° ESE 02:28:10 73° ESE 02:34:59 10° NE
USA 234 3.9 02:24:18 10° ENE 02:29:55 41° ESE 02:29:55 41° ESE
ATLAS CENTAUR R/B 4.1 02:34:12 10° N 02:37:28 19° NE 02:40:32 10° E
NOSS 3-2 (A) 4.2 02:44:53 41° ESE 02:44:59 41° ESE 02:51:02 10° NE
IRS-1C 4.5 02:43:42 10° NNE 02:48:35 59° ENE 02:48:35 59° ENE
CBERS-1 4.4 02:46:41 10° NNE 02:51:01 62° NE 02:51:01 62° NE
COSMOS 2455 4.0 02:54:24 31° NW 02:54:48 31° NW 03:00:09 10° NNE
Cosmos 1607 3.9 02:59:12 73° WNW 02:59:14 73° NW 03:05:25 10° NNE
NOSS 3-2 (C) 4.1 02:59:51 41° SE 03:00:31 42° ESE 03:06:38 10° NE
CZ-2D R/B 3.3 03:00:51 10° NNE 03:05:40 35° E 03:06:51 31° ESE
IRS-P3 4.5 03:00:46 10° N 03:05:22 54° NW 03:05:22 54° NW
Cosmos 1300 4.3 03:08:26 35° NE 03:08:26 35° NE 03:10:56 10° NNE
Cosmos 1726 3.8 03:09:57 32° NE 03:09:57 32° NE 03:12:24 10° NNE
Cosmos 2369 Rocket 3.3 03:04:02 10° NNW 03:09:20 41° ENE 03:14:37 10° SE
Cosmos 1151 Rocket 4.0 03:13:00 41° NNW 03:13:00 41° NNW 03:16:00 10° N
CZ-4C R/B 2.2 03:13:58 70° WNW 03:14:05 71° NW 03:20:09 10° NNE
Okean O Rocket 4.3 03:15:01 10° ENE 03:17:20 14° E 03:19:39 10° ESE
NPP 4.0 03:14:06 10° N 03:19:04 52° WNW 03:19:04 52° WNW
Cosmos 2219 Rocket 4.3 03:19:20 13° WNW 03:20:35 14° NW 03:23:19 10° NNW
BREEZE-M DEB (TANK) 4.3 03:15:12 10° WNW 03:22:24 44° WNW 03:22:24 44° WNW
Cosmos 1271 Rocket 3.5 03:25:24 51° NNE 03:25:24 51° NNE 03:28:29 10° N
Cosmos 1340 Rocket 4.1 03:22:16 10° NNW 03:24:42 35° NNW 03:24:42 35° NNW
AQUA 4.5 03:23:09 10° N 03:27:05 44° NW 03:27:05 44° NW
SL-16 R/B 3.2 03:28:18 32° WNW 03:28:41 33° NW 03:33:48 10° N
Cosmos 2333 Rocket 4.2 03:27:46 15° WNW 03:29:07 16° NW 03:32:32 10° N
Abrixas rocket 4.2 03:30:26 30° NE 03:30:26 30° NE 03:32:31 10° ENE
ATLAS 3B R/B 4.0 03:27:46 25° WNW 03:30:50 33° NW 03:37:24 10° NNE
Cosmos 1048 Rocket 4.4 03:31:28 51° WNW 03:31:31 51° WNW 03:36:46 10° N
Spot 4 Rocket 3.9 03:30:15 10° N 03:35:25 73° WNW 03:35:47 69° WSW
Cosmos 2237 Rocket 4.2 03:34:13 15° WNW 03:35:31 16° NW 03:38:53 10° N
IRS-1D 3.5 03:30:54 10° NNE 03:36:07 79° ESE 03:37:09 58° S
ADEOS 3.5 03:31:24 10° N 03:36:34 65° WNW 03:36:55 63° W
SL-16 R/B 2.4 03:34:24 36° SSE 03:37:08 86° WSW 03:43:23 10° NNW
CZ-3A R/B 4.1 03:32:23 38° SSW 03:37:28 79° SE 04:50:38 10° ENE
Cosmos 1943 Rocket 3.9 03:34:50 10° N 03:39:56 33° NE 03:44:59 10° ESE
Cosmos 1867 4.3 03:39:34 37° WNW 03:40:22 39° NW 03:45:30 10° NNE
Meteor 1-27 4.1 03:40:43 52° S 03:42:08 86° E 03:47:44 10° N
S3M 4.1 03:41:52 49° WSW 03:42:51 54° WNW 03:49:01 10° N
Meteor 1-4 Rocket 4.3 03:47:13 24° NNW 03:47:13 24° NNW 03:48:56 10° N
Resurs 1-4 Rocket 2.0 03:41:43 10° NNE 03:47:01 83° ESE 03:48:32 48° S
IRAS Rocket 4.4 03:43:01 10° N 03:48:30 54° WNW 03:49:28 48° WSW
ARIANE 5 R/B 2.5 03:44:37 10° N 03:49:52 74° WNW 03:50:58 55° SW
Cosmos 2242 Rocket 3.8 03:51:13 45° SSE 03:52:31 69° E 03:57:05 10° NNE
ERS-2 3.0 03:50:14 10° N 03:53:07 41° NW 03:53:07 41° NW
Cosmos 1331 Rocket 3.9 03:48:58 10° NNW 03:54:15 79° WSW 03:57:16 26° SSE
Cosmos 1869 Rocket 4.0 03:50:02 10° NNW 03:53:42 46° WNW 03:53:42 46° WNW
UNK 3.7 03:55:24 61° WSW 03:55:38 62° W 04:00:14 10° NNW
MOS 1-B 4.5 03:50:20 10° NNE 03:56:08 72° ESE 03:59:12 29° S
UNKNOWN OBJECT B 2.7 03:55:02 10° NNE 03:58:45 73° ESE 03:59:07 66° SSE
EO 1 Del DPAF 3.1 03:58:33 71° S 03:58:57 87° WSW 04:02:53 10° NNW
Cosmos 1184 Rocket 4.4 04:03:32 10° N 04:06:47 37° ENE 04:09:58 10° SE
Cosmos 1862 Rocket 4.4 04:05:10 19° SSE 04:08:01 47° E 04:12:14 10° NNE
Cosmos 1709 Rocket 3.9 04:01:52 10° N 04:08:16 81° W 04:13:53 13° S
Cosmos 724 4.4 04:06:24 33° SSW 04:09:11 73° ESE 04:15:12 10° NE
Coronas F rocket 4.3 04:06:38 10° NNW 04:06:42 10° NNW 04:06:42 10° NNW
Cosmos 1356 Rocket 4.2 04:06:29 10° NNW 04:09:26 34° WNW 04:09:26 34° WNW
ERBS 3.9 04:09:55 26° NW 04:10:17 26° NNW 04:13:21 10° NNE
Cosmos 1603 4.5 04:09:23 31° W 04:11:00 38° WNW 04:16:19 10° N
ATLAS 5 CENTAUR R/B 2.6 04:09:30 27° S 04:11:49 46° ESE 04:16:47 10° NE
USA 234 3.5 04:07:11 10° NE 04:13:39 63° NNW 04:17:15 28° WSW
Iridium 2 3.5 04:10:22 10° N 04:14:09 71° W 04:14:51 55° SSW
SeaSat 1 2.3 04:09:44 10° SSE 04:14:41 83° WSW 04:19:39 10° NNW
ATLAS CENTAUR R/B 1.3 04:12:41 10° NW 04:17:01 62° WSW 04:20:57 10° SSE
Meteor 2-3 Rocket 4.0 04:11:59 10° NNW 04:17:29 47° W 04:19:58 30° SSW
BREEZE-M DEB (TANK) 2.4 04:19:52 46° NNW 04:20:11 51° NNE 04:22:26 10° E
Cosmos 1892 2.7 04:18:45 10° NNW 04:22:32 56° W 04:23:21 45° SW
IRS-1C Rocket 4.3 04:17:34 10° NNE 04:22:51 69° ESE 04:27:17 15° S
Cosmos 2251 Rocket 3.9 04:21:42 33° WSW 04:23:32 47° WNW 04:28:37 10° N
Cosmos 2074 Rocket 4.3 04:23:20 10° N 04:29:33 67° E 04:35:44 10° SSE
Cosmos 2184 Rocket 4.4 04:24:54 10° N 04:31:17 67° E 04:37:36 10° SSE
Cosmos 1733 Rocket 3.0 04:30:18 10° NNW 04:34:39 68° W 04:38:54 11° S
NOSS 3-2 (A) 4.2 04:32:17 23° W 04:35:47 43° NW 04:42:15 10° NNE
COSMOS 2406 4.4 04:30:36 10° S 04:35:57 40° ESE 04:41:17 10° NE
SL-27 R/B 3.9 04:33:33 11° S 04:36:44 38° ESE 04:40:08 10° NE
Meteor 2-10 4.4 04:36:29 24° SW 04:39:38 50° WNW 04:44:56 10° N
Cosmos 1943 3.6 04:39:49 24° WSW 04:42:53 46° WNW 04:48:20 10° NNE
PSLV R/B 3.6 04:40:26 10° N 04:44:09 68° WNW 04:46:32 21° SSW
Cosmos 1726 4.2 04:44:38 13° WNW 04:44:38 13° WNW 04:46:20 10° NW
CZ-2D R/B 3.0 04:41:03 10° N 04:45:40 31° WNW 04:48:11 21° WSW
CZ-4B DEB 4.3 04:43:30 10° NNE 04:49:01 82° ESE 04:54:29 10° SSW
NOSS 3-2 (C) 4.2 04:47:18 19° WSW 04:51:25 42° NW 04:57:52 10° NNE
Cosmos 2369 Rocket 2.9 04:48:21 10° NW 04:53:11 30° WSW 04:58:00 10° SSW
Okean O Rocket 1.7 04:49:41 10° N 04:54:06 59° WNW 04:57:47 14° SSW
CZ-4B R/B 3.1 04:49:02 10° NNE 04:54:23 83° WNW 04:59:40 10° SSW
CZ-3A R/B 4.5 04:50:26 10° WNW 04:54:24 22° N 04:57:54 10° NE
Okean-O 3.7 04:51:14 10° NNE 04:55:32 46° E 04:59:47 10° S
Cosmos 1455 3.0 04:54:30 22° WSW 04:56:16 33° WNW 04:59:51 10° N
Cosmos 2221 Rocket 4.3 04:52:24 10° S 04:56:44 56° E 05:01:05 10° NNE
CENTAUR R/B 2.7 04:51:51 12° SSW 04:57:32 73° ESE 05:04:24 10° NE
ADEOS Rocket 4.1 04:50:15 10° NNE 04:57:54 65° E 05:05:35 10° S
Cosmos 2285 Rocket 4.1 04:53:06 10° NNW 04:59:34 84° ENE 05:05:58 10° SSE
Cosmos 1908 Rocket 3.5 04:57:01 10° N 05:01:26 79° W 05:05:46 10° S
Aureole 3 Rocket 4.4 04:54:37 10° S 05:02:01 68° E 05:07:16 10° NNE
ARGOS Delta rocket 4.3 04:59:08 10° N 05:03:13 37° WNW 05:06:27 15° SW
CZ-4C R/B 4.2 04:59:43 10° WNW 05:03:51 20° NNW 05:08:20 10° NNE
Abrixas rocket 3.7 05:03:44 10° WNW 05:06:50 35° N 05:09:57 10° ENE
Sich 1 Rocket 3.7 05:05:17 10° NNW 05:09:33 51° W 05:13:48 10° S
CZ-2C R/B 4.4 05:10:26 10° SSW 05:14:24 32° W 05:18:23 10° NNW
Cosmos 389 Rocket 3.2 05:13:58 13° SW 05:16:38 33° WNW 05:19:51 10° N
Meteor 1-31 Rocket 4.3 05:14:22 10° NNE 05:17:56 37° E 05:21:28 10° SSE
PAYLOAD B 4.5 05:12:49 10° N 05:18:10 51° WNW 05:23:29 10° SW
Cosmos 1703 Rocket 3.6 05:15:31 10° SSW 05:19:58 74° W 05:24:28 10° N
SL-16 R/B 4.1 05:19:30 11° WSW 05:21:38 13° W 05:24:26 10° WNW
Cosmos 407 Rocket 4.5 05:17:10 10° S 05:22:10 50° ESE 05:27:15 10° NNE
Cosmos 1943 Rocket 2.6 05:18:29 10° NW 05:23:45 40° WSW 05:28:58 10° S
Cosmos 1862 3.7 05:21:01 10° NNW 05:24:46 41° W 05:28:30 10° SSW
CZ-4B R/B 3.5 05:22:36 10° N 05:25:53 33° WNW 05:29:14 10° SW
Resurs 1-4 Rocket 3.9 05:23:21 10° NNW 05:26:09 15° WNW 05:28:58 10° W
PSLV R/B 3.5 05:23:40 11° W 05:26:52 57° S 05:30:11 10° ESE
Feng Yun 1-1 Rocket 4.2 05:27:45 10° NNE 05:33:11 86° WNW 05:38:35 10° SSW
Cosmos 1825 2.9 05:31:18 10° NNW 05:34:43 32° W 05:38:07 10° SSW
Cosmos 1933 4.2 05:35:23 10° SW 05:39:06 33° WNW 05:42:50 10° N
Cosmos 1408 3.5 05:36:20 10° NNW 05:39:35 28° W 05:42:50 10° SSW
COSMOS 2487 3.3 05:36:18 10° S 05:39:50 56° ESE 05:43:23 10° NNE
Meteor 1-26 Rocket 4.3 05:36:31 10° SSW 05:42:19 78° W 05:48:15 10° N
